Hourly Weather Roundup
Issued by NWS Central Illinois

Home | Current Version | Previous Version | Text Only | Print | Product List | Glossary On
Versions: 1 2 3 4 5 6 7 8 9 10 11 12 13 14 15 16 17 18 19 20 21 22 23 24 25 26 27 28 29 30 31 32 33 34 35 36 37 38 39 40 41 42 43 44 45 46 47 48 49 50
000
NZUS43 KILX 022210
HWRILX

AREA WEATHER ROUNDUP
NATIONAL WEATHER SERVICE, LINCOLN IL
400 PM CST MON MAR 02 2015


CITY           SKY/WX    TMP DP  RH WIND       PRES   REMARKS
BLOOMINGTON    MOSUNNY   26  18  72 S8        30.42F WCI  18
CHAMPAIGN      CLOUDY    26  18  71 SE6       30.43F WCI  19
DECATUR        CLOUDY    28  20  71 E7        30.44F WCI  21
FLORA          SUNNY     32  19  58 NE3       30.45F
GALESBURG      CLOUDY    29  17  61 E3        30.40F
JACKSONVILLE   PTSUNNY   33  23  66 E8        30.41F WCI  27
LACON          MOSUNNY   25  16  68 SE7       30.43F WCI  17
LAWRENCEVILLE  SUNNY     33  20  58 N6        30.45F WCI  28
LITCHFIELD     SUNNY     32  18  58 S3        30.40F
$$


CITY           SKY/WX    TMP DP  RH WIND       PRES   REMARKS
LINCOLN        PTSUNNY   30  22  72 SE6       30.45F WCI  24
MACOMB         CLOUDY    30  19  64 E3        30.42F
MATTOON        MOSUNNY   29  18  63 NW6       30.43F WCI  23
MT CARMEL AP   MOSUNNY   34  18  51 CALM      30.44F
OLNEY-NOBLE AP SUNNY     32  19  59 CALM      30.45F
PARIS          CLOUDY    29  22  74 CALM      30.45F
PEORIA         CLOUDY    30  18  60 S10       30.42F WCI  21
PONTIAC        CLOUDY    25  18  75 SE7       30.44F WCI  17
RANTOUL        CLOUDY    26  19  72 CALM      30.44F
ROBINSON       SUNNY     32  20  61 CALM      30.46F
SPRINGFIELD    PTSUNNY   32  20  61 SE8       30.42F WCI  25
TAYLORVILLE    MOSUNNY   32  18  55 SE6       30.42F WCI  26
$$

...REGIONAL REPORTS...


CITY           SKY/WX    TMP DP  RH WIND       PRES   REMARKS
CHICAGO O`HARE CLOUDY    32  10  40 E3        30.39F
KANKAKEE       SUNNY     26  16  63 SE6       30.45S WCI  20
MOLINE         CLOUDY    27  17  66 SE7       30.40F WCI  19
MOUNT VERNON   PTSUNNY   32  18  55 NE8       30.43F WCI  25
PITTSFIELD     MOSUNNY   33  20  57 E9        30.40S WCI  26
QUINCY         PTSUNNY   33  19  56 SE8       30.37F WCI  26
ROCKFORD       CLOUDY    26  13  57 S6        30.43F WCI  19
$$


CITY           SKY/WX    TMP DP  RH WIND       PRES   REMARKS
BURLINGTON     CLOUDY    29  16  58 E5        30.38F WCI  24
CEDAR RAPIDS   CLOUDY    25  14  63 E8        30.35F WCI  16
DES MOINES     CLOUDY    32  16  51 SE12      30.31F WCI  23
KIRKSVILLE     PTSUNNY   34  21  59 E12       30.34F WCI  25
OTTUMWA        CLOUDY    30  16  56 SE10      30.33F WCI  21
ST LOUIS       PTSUNNY   34  18  52 E9        30.40F WCI  27
$$


CITY           SKY/WX    TMP DP  RH WIND       PRES   REMARKS
TERRE HAUTE    SUNNY     33  15  47 CALM      30.44S
EVANSVILLE     PTSUNNY   39  16  39 CALM      30.44R
INDIANAPOLIS   PTSUNNY   29  15  56 SE9       30.43R WCI  20
LAFAYETTE      SUNNY     28  16  60 SW5       30.44S WCI  23
MADISON        PTSUNNY   27   9  46 S6        30.38F WCI  20
MILWAUKEE      PTSUNNY   27   8  44 S9        30.40F WCI  18
$$





USA.gov is the U.S. government's official web portal to all federal, state and local government web resources and services.